DW8397 Weather Reports


Display with metric or nautical units.
time (UTC)temp
F
wind
direction
speed
MPH
gust
MPH
rain 1hr
in
rain 24hr
in
rain mn
in
humidity
%
barometer
mb
20260901063006 63 317 0.0 0.0 0.00 0.00 0.00 88 1016.1
20260901061505 63 317 0.0 0.0 0.00 0.00 0.00 88 1016.0
20260901060003 63 317 0.0 0.0 0.00 0.00 0.00 88 1016.1
20260901054508 63 317 0.0 0.0 0.00 0.00 0.00 88 1016.2
20260901053001 63 317 0.0 0.0 0.00 0.00 0.00 88 1016.2
20260901051611 64 317 0.0 0.0 0.00 0.00 0.00 88 1016.3
20260901050059 64 317 0.0 0.0 0.00 0.00 0.00 88 1016.4
20260901044608 64 317 0.0 0.0 0.00 0.00 0.00 88 1016.5
20260901043057 64 317 0.0 0.0 0.00 0.00 0.00 88 1016.3
20260901041555 64 317 0.0 0.0 0.00 0.00 0.00 87 1016.3
20260901040109 64 317 0.0 0.0 0.00 0.00 0.00 87 1016.2
20260901034607 64 317 0.0 0.0 0.00 0.00 0.00 87 1016.2
20260901033051 64 317 0.0 0.0 0.00 0.00 0.00 87 1016.5
20260901031551 64 317 0.0 0.0 0.00 0.00 0.00 87 1016.5
20260901030049 64 317 0.0 0.0 0.00 0.00 0.00 87 1016.5
20260901024553 64 317 0.0 0.0 0.00 0.00 0.00 86 1016.7
20260901023100 64 317 0.0 0.0 0.00 0.00 0.00 86 1016.6
20260901021554 64 317 0.0 0.0 0.00 0.00 0.00 85 1016.6
20260901020048 64 317 0.0 0.0 0.00 0.00 0.00 85 1016.6
20260901014553 64 317 0.0 0.0 0.00 0.00 0.00 85 1016.6
20260901013047 64 317 0.0 0.0 0.00 0.00 0.00 84 1016.6
20260901011547 64 317 0.0 0.0 0.00 0.00 0.00 84 1016.5
20260901010046 65 317 0.0 0.0 0.00 0.00 0.00 84 1016.6
20260901004645 65 317 0.0 0.0 0.00 0.00 0.00 83 1016.5
20260901003045 65 317 0.0 0.0 0.00 0.00 0.00 82 1016.6
20260901001644 66 317 0.0 0.0 0.00 0.00 0.00 81 1016.5
20260901000045 66 317 0.0 0.0 0.00 0.00 0.00 80 1016.4
20260831234545 67 317 0.0 0.0 0.00 0.00 0.00 79 1016.4
20260831233042 68 317 0.0 0.0 0.00 0.00 0.00 80 1016.4
20260831231542 69 317 0.0 0.0 0.00 0.00 0.00 78 1016.6
20260831230041 70 317 0.0 0.0 0.00 0.00 0.00 75 1016.8
20260831224538 71 317 0.0 0.0 0.00 0.00 0.00 73 1017.0
20260831223040 71 317 0.0 0.0 0.00 0.00 0.00 71 1017.0
20260831221538 72 317 0.0 0.0 0.00 0.00 0.00 66 1017.1
20260831220036 72 278 0.0 0.0 0.00 0.00 0.00 67 1016.9
20260831214538 72 278 0.0 0.0 0.00 0.00 0.00 64 1016.9
20260831213035 73 184 0.0 0.0 0.00 0.00 0.00 64 1016.9
20260831211536 73 300 0.0 6.0 0.00 0.00 0.00 62 1016.9
20260831210034 73 219 0.0 0.0 0.00 0.00 0.00 61 1016.9
20260831204533 73 262 0.0 3.0 0.00 0.00 0.00 58 1016.9
20260831203031 74 214 0.0 5.0 0.00 0.00 0.00 59 1017.0
20260831201531 74 346 1.0 11.0 0.00 0.00 0.00 57 1017.1
20260831200040 74 205 1.0 9.0 0.00 0.00 0.00 58 1017.2
20260831194531 75 325 2.0 7.0 0.00 0.00 0.00 53 1017.2
20260831193037 76 159 0.0 7.0 0.00 0.00 0.00 55 1017.4
20260831191534 75 308 0.0 6.0 0.00 0.00 0.00 58 1017.4
20260831190027 75 188 2.0 7.0 0.00 0.00 0.00 55 1017.5
20260831184526 75 184 0.0 3.0 0.00 0.00 0.00 59 1017.5
20260831183021 74 298 0.0 4.0 0.00 0.00 0.00 61 1017.5
20260831181522 73 245 0.0 2.0 0.00 0.00 0.00 62 1017.9
20260831180024 73 221 0.0 2.0 0.00 0.00 0.00 61 1017.9
20260831174522 73 302 0.0 0.0 0.00 0.00 0.00 63 1018.1
20260831173015 73 276 0.0 6.0 0.00 0.00 0.00 66 1018.2
20260831171515 72 183 0.0 0.0 0.00 0.00 0.00 64 1018.2
20260831170015 72 306 0.0 2.0 0.00 0.00 0.00 66 1018.3
20260831164528 72 314 0.0 0.0 0.00 0.00 0.00 68 1018.5
20260831163013 72 309 0.0 0.0 0.00 0.00 0.00 69 1018.6
20260831161512 72 184 0.0 0.0 0.00 0.00 0.00 66 1018.8
20260831160011 72 164 0.0 0.0 0.00 0.00 0.00 69 1018.9
20260831154511 72 185 0.0 0.0 0.00 0.00 0.00 69 1018.9
20260831153010 72 184 0.0 0.0 0.00 0.00 0.00 66 1019.0
20260831151512 73 211 0.0 0.0 0.00 0.00 0.00 70 1018.9
20260831150010 72 285 0.0 0.0 0.00 0.00 0.00 70 1018.8
20260831144510 70 191 0.0 0.0 0.00 0.00 0.00 70 1019.0
20260831143106 69 151 0.0 0.0 0.00 0.00 0.00 72 1019.0
20260831141607 68 171 0.0 0.0 0.00 0.00 0.00 77 1019.1
20260831140050 67 210 0.0 0.0 0.00 0.00 0.00 82 1019.1
20260831134550 65 189 0.0 0.0 0.00 0.00 0.00 88 1019.2
20260831133041 61 188 0.0 0.0 0.00 0.00 0.00 88 1019.2
20260831131537 60 188 0.0 0.0 0.00 0.00 0.00 87 1019.0
20260831130033 58 292 0.0 0.0 0.00 0.00 0.00 88 1019.1
20260831124529 56 193 0.0 0.0 0.00 0.00 0.00 88 1019.0
20260831123025 54 193 0.0 0.0 0.00 0.00 0.00 88 1019.1
20260831121524 53 195 0.0 0.0 0.00 0.00 0.00 89 1019.2
20260831120034 52 319 0.0 0.0 0.00 0.00 0.00 89 1019.1
20260831114530 52 319 0.0 0.0 0.00 0.00 0.00 89 1019.3
20260831113019 52 319 0.0 0.0 0.00 0.00 0.00 89 1019.1
20260831111518 52 319 0.0 0.0 0.00 0.00 0.00 89 1019.0
20260831110016 52 319 0.0 0.0 0.00 0.00 0.00 89 1018.9
20260831104514 52 319 0.0 0.0 0.00 0.00 0.00 89 1018.7
20260831103012 53 319 0.0 0.0 0.00 0.00 0.00 89 1018.6
20260831101510 53 319 0.0 0.0 0.00 0.00 0.00 89 1018.6
20260831100008 53 319 0.0 0.0 0.00 0.00 0.00 89 1018.5
20260831094506 54 319 0.0 0.0 0.00 0.00 0.00 89 1018.4
20260831093010 55 319 0.0 0.0 0.00 0.00 0.00 89 1018.4
20260831091507 55 319 0.0 0.0 0.00 0.00 0.00 89 1018.2
20260831090100 55 319 0.0 0.0 0.00 0.00 0.00 89 1018.1
20260831084608 56 319 0.0 0.0 0.00 0.00 0.00 89 1017.9
20260831083105 56 319 0.0 0.0 0.00 0.00 0.00 89 1017.8
20260831081554 56 321 0.0 5.0 0.00 0.00 0.00 89 1017.7
20260831080052 57 329 0.0 5.0 0.00 0.00 0.00 89 1017.6
20260831074550 57 23 0.0 0.0 0.00 0.00 0.00 89 1017.5
20260831073054 58 34 0.0 0.0 0.00 0.00 0.00 89 1017.4
20260831071546 58 34 0.0 0.0 0.00 0.00 0.00 89 1017.6
20260831070045 59 34 0.0 0.0 0.00 0.00 0.00 89 1017.4
20260831064544 59 34 0.0 0.0 0.00 0.00 0.00 89 1017.4